This is the latest recevied weather packets stored in our database for station/object K7BC. If no packets are shown the sender has not sent any weather packets the latest 1 day(s).
| Time | Temp. | Humidity | Pressure | Rain* | Wind** | Luminosity | Snow |
|---|---|---|---|---|---|---|---|
| 1778007665 | 29.44° C | 30% | 1009.9 hPa | 0 mm | 0.89 m/s, 261° | - | - |
| 1778007544 | 29.44° C | 30% | 1009.9 hPa | 0 mm | 0.45 m/s, 254° | - | - |
| 1778007425 | 29.44° C | 31% | 1010.1 hPa | 0 mm | 0.89 m/s, 287° | - | - |
| 1778007304 | 29.44° C | 30% | 1010.1 hPa | 0 mm | 0.89 m/s, 214° | - | - |
| 1778007184 | 29.44° C | 32% | 1010.1 hPa | 0 mm | 0.89 m/s, 147° | - | - |
| 1778007065 | 29.44° C | 29% | 1010.1 hPa | 0 mm | 1.34 m/s, 213° | - | - |
| 1778006944 | 30° C | 30% | 1010.3 hPa | 0 mm | 0.89 m/s, 213° | - | - |
| 1778006823 | 30° C | 30% | 1010.3 hPa | 0 mm | 0.89 m/s, 192° | - | - |
| 1778006705 | 30° C | 31% | 1010.3 hPa | 0 mm | 1.34 m/s, 209° | - | - |
| 1778006584 | 30° C | 31% | 1010.3 hPa | 0 mm | 0 m/s | - | - |
| 1778006465 | 30° C | 33% | 1010.3 hPa | 0 mm | 0.45 m/s, 188° | - | - |
| 1778006344 | 29.44° C | 31% | 1010.2 hPa | 0 mm | 0.45 m/s, 278° | - | - |
| 1778006223 | 29.44° C | 31% | 1010.3 hPa | 0 mm | 0.45 m/s, 98° | - | - |
| 1778006104 | 29.44° C | 31% | 1010.4 hPa | 0 mm | 0 m/s | - | - |
| 1778005984 | 29.44° C | 30% | 1010.4 hPa | 0 mm | 0.45 m/s, 56° | - | - |
| 1778005865 | 29.44° C | 29% | 1010.4 hPa | 0 mm | 0.89 m/s, 124° | - | - |
| 1778005743 | 29.44° C | 29% | 1010.5 hPa | 0 mm | 0.89 m/s, 31° | - | - |
| 1778005625 | 29.44° C | 34% | 1010.6 hPa | 0 mm | 0.45 m/s, 107° | - | - |
| 1778005504 | 29.44° C | 32% | 1010.5 hPa | 0 mm | 0.45 m/s, 181° | - | - |
| 1778005383 | 29.44° C | 31% | 1010.5 hPa | 0 mm | 0.45 m/s, 122° | - | - |
| 1778005264 | 28.89° C | 32% | 1010.5 hPa | 0 mm | 0.89 m/s, 227° | - | - |
| 1778005145 | 28.89° C | 31% | 1010.6 hPa | 0 mm | 0.45 m/s, 283° | - | - |
| 1778005025 | 28.89° C | 31% | 1010.6 hPa | 0 mm | 0.45 m/s, 287° | - | - |
| 1778004904 | 29.44° C | 32% | 1010.6 hPa | 0 mm | 0.89 m/s, 295° | - | - |
| 1778004783 | 29.44° C | 33% | 1010.6 hPa | 0 mm | 0.45 m/s, 262° | - | - |
* Rain latest hour (hover to see other rain measurements)
** Current wind speed in m/s (hover to see current wind gust speed)